,,PA_Meas_PMT16A,,PR_Meas_QMR101_102,,RH_Meas_QMH101,,SR_Meas_QMS101,,TA_Meas_QMH101,,GenWind,,GenWind,
time,status,PA,status,PR,status,RH,status,SR,status,TA,status,DirAvg,status,SpdAvg,
2009-09-28, 00:00:04,VALID,918.468,VALID,0,VALID,89.2931,VALID,0,VALID,19.3294,VALID,219,VALID,1.59961,
2009-09-28, 00:01:04,VALID,918.445,VALID,0,VALID,89.1787,VALID,0,VALID,19.3489,VALID,242,VALID,1.55977,
2009-09-28, 00:02:04,VALID,918.393,VALID,0,VALID,89.1482,VALID,0,VALID,19.3489,VALID,245,VALID,1.17891,
2009-09-28, 00:03:04,VALID,918.354,VALID,0,VALID,88.7671,VALID,0,VALID,19.3294,VALID,220,VALID,2,
2009-09-28, 00:04:04,VALID,918.313,VALID,0,VALID,89.1025,VALID,0,VALID,19.3489,VALID,213,VALID,0.949219,
2009-09-28, 00:05:04,VALID,918.263,VALID,0,VALID,89.1254,VALID,0,VALID,19.3489,VALID,213,VALID,1.13633,
2009-09-28, 00:06:04,VALID,918.264,VALID,0,VALID,88.8128,VALID,0,VALID,19.3893,VALID,212,VALID,1.30703,
2009-09-28, 00:07:04,VALID,918.204,VALID,0,VALID,88.889,VALID,0,VALID,19.3698,VALID,184,VALID,1.13437,
2009-09-28, 00:08:04,VALID,918.171,VALID,0,VALID,88.546,VALID,0,VALID,19.3893,VALID,214,VALID,1.68125,
2009-09-28, 00:09:04,VALID,918.204,VALID,0,VALID,88.6146,VALID,0,VALID,19.4298,VALID,238,VALID,1.45977,
2009-09-28, 00:10:04,VALID,918.117,VALID,0,VALID,88.6146,VALID,0,VALID,19.4088,VALID,207,VALID,1.14336,
2009-09-28, 00:11:04,VALID,918.081,VALID,0,VALID,88.7442,VALID,0,VALID,19.4088,VALID,207,VALID,0.478516,
2009-09-28, 00:12:04,VALID,918.044,VALID,0,VALID,89.1863,VALID,0,VALID,19.4283,VALID,207,VALID,0.401563,
2009-09-28, 00:13:04,VALID,918.021,VALID,0,VALID,89.415,VALID,0,VALID,19.4088,VALID,207,VALID,0.905078,
2009-09-28, 00:14:04,VALID,918.039,VALID,0,VALID,88.828,VALID,0,VALID,19.4088,VALID,207,VALID,0.404687,
2009-09-28, 00:15:04,VALID,918.058,VALID,0,VALID,89.0567,VALID,0,VALID,19.4283,VALID,207,VALID,0.926562,
2009-09-28, 00:16:04,VALID,918.015,VALID,0,VALID,89.476,VALID,0,VALID,19.4074,VALID,207,VALID,1.03516,
2009-09-28, 00:17:04,VALID,917.966,VALID,0,VALID,89.1482,VALID,0,VALID,19.4088,VALID,206,VALID,0.898047,
2009-09-28, 00:18:04,VALID,917.973,VALID,0,VALID,89.3846,VALID,0,VALID,19.3893,VALID,206,VALID,0.830859,
2009-09-28, 00:19:04,VALID,917.966,VALID,0,VALID,89.5142,VALID,0,VALID,19.3893,VALID,206,VALID,0.548437,
2009-09-28, 00:20:04,VALID,917.995,VALID,0,VALID,89.5904,VALID,0,VALID,19.3893,VALID,206,VALID,0.380469,
2009-09-28, 00:21:04,VALID,917.953,VALID,0,VALID,89.4608,VALID,0,VALID,19.4283,VALID,206,VALID,0.323438,
2009-09-28, 00:22:04,VALID,917.947,VALID,0,VALID,89.781,VALID,0,VALID,19.4283,VALID,206,VALID,0.797266,
2009-09-28, 00:23:04,VALID,917.91,VALID,0,VALID,89.4455,VALID,0,VALID,19.4088,VALID,185,VALID,0.9,
2009-09-28, 00:24:04,VALID,917.924,VALID,0,VALID,89.3922,VALID,0,VALID,19.3893,VALID,180,VALID,0.991797,
2009-09-28, 00:25:04,VALID,917.942,VALID,0,VALID,89.255,VALID,0,VALID,19.4103,VALID,180,VALID,0.616797,
2009-09-28, 00:26:04,VALID,917.895,VALID,0,VALID,89.2245,VALID,0,VALID,19.4088,VALID,180,VALID,0.701953,
2009-09-28, 00:27:04,VALID,917.868,VALID,0,VALID,89.4989,VALID,0,VALID,19.4283,VALID,180,VALID,0.699609,
2009-09-28, 00:28:04,VALID,917.773,VALID,0,VALID,89.7733,VALID,0,VALID,19.4088,VALID,132,VALID,1.30977,
2009-09-28, 00:29:04,VALID,917.771,VALID,0,VALID,89.2626,VALID,0,VALID,19.3879,VALID,174,VALID,0.950391,
2009-09-28, 00:30:04,VALID,917.771,VALID,0,VALID,88.8204,VALID,0,VALID,19.4283,VALID,122,VALID,0.464844,
2009-09-28, 00:31:04,VALID,917.741,VALID,0,VALID,88.4011,VALID,0,VALID,19.4673,VALID,123,VALID,1.51016,
2009-09-28, 00:32:04,VALID,917.702,VALID,0,VALID,88.3173,VALID,0,VALID,19.5258,VALID,123,VALID,1.19375,
2009-09-28, 00:33:04,VALID,917.695,VALID,0,VALID,88.5536,VALID,0,VALID,19.5258,VALID,123,VALID,1.52969,
2009-09-28, 00:34:04,VALID,917.689,VALID,0,VALID,88.4088,VALID,0,VALID,19.5063,VALID,123,VALID,1.11602,
2009-09-28, 00:35:04,VALID,917.628,VALID,0,VALID,88.8509,VALID,0,VALID,19.5063,VALID,123,VALID,1.11836,
2009-09-28, 00:36:04,VALID,917.612,VALID,0,VALID,88.9805,VALID,0,VALID,19.4673,VALID,123,VALID,0.873438,
2009-09-28, 00:37:04,VALID,917.622,VALID,0,VALID,89.2092,VALID,0,VALID,19.4478,VALID,123,VALID,0.785547,
2009-09-28, 00:38:04,VALID,917.602,VALID,0,VALID,89.2016,VALID,0,VALID,19.4478,VALID,123,VALID,0.914453,
2009-09-28, 00:39:04,VALID,917.632,VALID,0,VALID,88.9729,VALID,0,VALID,19.4478,VALID,123,VALID,0.233984,
2009-09-28, 00:40:04,VALID,917.633,VALID,0,VALID,88.7975,VALID,0,VALID,19.4868,VALID,123,VALID,0.238281,
2009-09-28, 00:41:04,VALID,917.641,VALID,0,VALID,88.6603,VALID,0,VALID,19.5258,VALID,123,VALID,0.0546875,
2009-09-28, 00:42:04,VALID,917.644,VALID,0,VALID,88.6908,VALID,0,VALID,19.5648,VALID,123,VALID,0,
2009-09-28, 00:43:04,VALID,917.632,VALID,0,VALID,87.6312,VALID,0,VALID,19.6038,VALID,123,VALID,0.891406,
2009-09-28, 00:44:04,VALID,917.602,VALID,0,VALID,88.4697,VALID,0,VALID,19.6818,VALID,123,VALID,0.310547,
2009-09-28, 00:45:04,VALID,917.609,VALID,0,VALID,87.3796,VALID,0,VALID,19.6818,VALID,123,VALID,0.472266,
2009-09-28, 00:46:04,VALID,917.6,VALID,0,VALID,87.7989,VALID,0,VALID,19.7013,VALID,123,VALID,0.586719,
2009-09-28, 00:47:04,VALID,917.602,VALID,0,VALID,87.8751,VALID,0,VALID,19.7208,VALID,123,VALID,0,
2009-09-28, 00:48:04,VALID,917.58,VALID,0,VALID,87.6845,VALID,0,VALID,19.7598,VALID,123,VALID,0.559766,
2009-09-28, 00:49:04,VALID,917.573,VALID,0,VALID,88.3173,VALID,0,VALID,19.7793,VALID,123,VALID,0.600391,
2009-09-28, 00:50:04,VALID,917.574,VALID,0,VALID,87.2119,VALID,0,VALID,19.7793,VALID,207,VALID,0.838281,
2009-09-28, 00:51:04,VALID,917.524,VALID,0,VALID,86.5029,VALID,0,VALID,19.8573,VALID,233,VALID,2.37695,
2009-09-28, 00:52:04,VALID,917.501,VALID,0,VALID,87.1509,VALID,0,VALID,19.8753,VALID,221,VALID,1.61211,
2009-09-28, 00:53:04,VALID,917.463,VALID,0,VALID,87.0213,VALID,0,VALID,19.8768,VALID,227,VALID,1.82266,
2009-09-28, 00:54:04,VALID,917.443,VALID,0,VALID,87.776,VALID,0,VALID,19.8168,VALID,237,VALID,1.51055,
2009-09-28, 00:55:04,VALID,917.432,VALID,0,VALID,87.7455,VALID,0,VALID,19.7403,VALID,227,VALID,1.78984,
2009-09-28, 00:56:04,VALID,917.395,VALID,0,VALID,88.8204,VALID,0,VALID,19.6623,VALID,241,VALID,1.85898,
2009-09-28, 00:57:04,VALID,917.412,VALID,0,VALID,89.3007,VALID,0,VALID,19.5648,VALID,247,VALID,2.74766,
2009-09-28, 00:58:04,VALID,917.392,VALID,0,VALID,90.2917,VALID,0,VALID,19.4478,VALID,241,VALID,2.19883,
2009-09-28, 00:59:04,VALID,917.384,VALID,0,VALID,90.833,VALID,0,VALID,19.3503,VALID,262,VALID,1.94297,
2009-09-28, 01:00:04,VALID,917.394,VALID,0,VALID,91.9918,VALID,0,VALID,19.2528,VALID,227,VALID,1.89258,
2009-09-28, 01:01:04,VALID,917.331,VALID,0,VALID,92.2891,VALID,0,VALID,19.1734,VALID,225,VALID,1.54922,
2009-09-28, 01:02:04,VALID,917.298,VALID,0,VALID,92.5254,VALID,0,VALID,19.1554,VALID,246,VALID,1.23398,
2009-09-28, 01:03:04,VALID,917.27,VALID,0,VALID,92.7846,VALID,0,VALID,19.1164,VALID,262,VALID,1.01914,
2009-09-28, 01:04:04,VALID,917.262,VALID,0,VALID,93.2801,VALID,0,VALID,19.0579,VALID,273,VALID,0.724219,
2009-09-28, 01:05:04,VALID,917.222,VALID,0,VALID,93.5088,VALID,0,VALID,19.0384,VALID,274,VALID,0.497266,
2009-09-28, 01:06:04,VALID,917.205,VALID,0,VALID,93.5393,VALID,0,VALID,19.0189,VALID,274,VALID,0.755078,
2009-09-28, 01:07:04,VALID,917.166,VALID,0,VALID,93.7756,VALID,0,VALID,18.9994,VALID,274,VALID,0.577344,
2009-09-28, 01:08:04,VALID,917.119,VALID,0,VALID,94.3474,VALID,0,VALID,18.9994,VALID,274,VALID,0.00585938,
2009-09-28, 01:09:04,VALID,917.102,VALID,0,VALID,94.4084,VALID,0,VALID,18.9994,VALID,274,VALID,0,
2009-09-28, 01:10:04,VALID,917.069,VALID,0,VALID,94.4389,VALID,0,VALID,18.9785,VALID,273,VALID,0.336328,
2009-09-28, 01:11:04,VALID,917.009,VALID,0,VALID,94.1873,VALID,0,VALID,18.9994,VALID,273,VALID,0.527344,
2009-09-28, 01:12:04,VALID,916.963,VALID,0,VALID,94.0653,VALID,0,VALID,18.9799,VALID,274,VALID,0.669922,
2009-09-28, 01:13:04,VALID,916.971,VALID,0,VALID,94.3398,VALID,0,VALID,18.9409,VALID,274,VALID,0.419922,
2009-09-28, 01:14:04,VALID,916.966,VALID,0,VALID,94.2712,VALID,0,VALID,18.92,VALID,273,VALID,0.317187,
2009-09-28, 01:15:04,VALID,916.959,VALID,0,VALID,94.3855,VALID,0,VALID,18.9214,VALID,274,VALID,0.270703,
2009-09-28, 01:16:04,VALID,916.945,VALID,0,VALID,94.7667,VALID,0,VALID,18.9409,VALID,273,VALID,0.440234,
2009-09-28, 01:17:04,VALID,916.912,VALID,0,VALID,95.0488,VALID,0,VALID,18.9604,VALID,274,VALID,0.283984,
2009-09-28, 01:18:04,VALID,916.867,VALID,0,VALID,94.9878,VALID,0,VALID,18.9799,VALID,274,VALID,0.524609,
2009-09-28, 01:19:04,VALID,916.814,VALID,0,VALID,94.8277,VALID,0,VALID,18.9409,VALID,273,VALID,0.514453,
2009-09-28, 01:20:04,VALID,916.774,VALID,0,VALID,95.0259,VALID,0,VALID,18.9019,VALID,273,VALID,0.382031,
2009-09-28, 01:21:04,VALID,916.765,VALID,0,VALID,95.064,VALID,0.107441,VALID,18.881,VALID,274,VALID,0.507422,
2009-09-28, 01:22:04,VALID,916.742,VALID,0,VALID,94.9954,VALID,0,VALID,18.8824,VALID,274,VALID,0.822656,
2009-09-28, 01:23:04,VALID,916.675,VALID,0,VALID,95.1783,VALID,0,VALID,18.8824,VALID,274,VALID,1.06523,
2009-09-28, 01:24:04,VALID,916.59,VALID,0,VALID,95.125,VALID,0,VALID,18.8629,VALID,273,VALID,1.23828,
2009-09-28, 01:25:04,VALID,916.609,VALID,0,VALID,95.247,VALID,0,VALID,18.842,VALID,274,VALID,1.02461,
2009-09-28, 01:26:04,VALID,916.604,VALID,0,VALID,95.3613,VALID,0,VALID,18.8434,VALID,274,VALID,1.05977,
2009-09-28, 01:27:04,VALID,916.576,VALID,0,VALID,95.3613,VALID,0,VALID,18.803,VALID,244,VALID,1.16289,
2009-09-28, 01:28:04,VALID,916.587,VALID,0,VALID,95.4909,VALID,0,VALID,18.824,VALID,139,VALID,1.42227,
2009-09-28, 01:29:04,VALID,916.565,VALID,0,VALID,95.529,VALID,0,VALID,18.824,VALID,138,VALID,1.0207,
2009-09-28, 01:30:04,VALID,916.539,VALID,0,VALID,95.5138,VALID,0,VALID,18.824,VALID,129,VALID,1.30078,
2009-09-28, 01:31:04,VALID,916.518,VALID,0,VALID,95.651,VALID,0,VALID,18.8434,VALID,132,VALID,0.566797,
2009-09-28, 01:32:04,VALID,916.472,VALID,0,VALID,95.6815,VALID,0,VALID,18.842,VALID,132,VALID,1.22227,
2009-09-28, 01:33:04,VALID,916.464,VALID,0,VALID,95.5748,VALID,0,VALID,18.8225,VALID,155,VALID,1.44375,
2009-09-28, 01:34:04,VALID,916.425,VALID,0,VALID,95.5519,VALID,0,VALID,18.8225,VALID,157,VALID,1.28242,
2009-09-28, 01:35:04,VALID,916.372,VALID,0,VALID,95.4071,VALID,0,VALID,18.803,VALID,157,VALID,1.50273,
2009-09-28, 01:36:04,VALID,916.365,VALID,0,VALID,95.4299,VALID,0,VALID,18.824,VALID,157,VALID,1.23789,
2009-09-28, 01:37:04,VALID,916.331,VALID,0,VALID,95.3689,VALID,0,VALID,18.824,VALID,157,VALID,1.21289,
2009-09-28, 01:38:04,VALID,916.309,VALID,0,VALID,95.3156,VALID,0,VALID,18.824,VALID,158,VALID,1.50742,
2009-09-28, 01:39:04,VALID,916.268,VALID,0,VALID,95.4299,VALID,0,VALID,18.8434,VALID,168,VALID,1.18008,
2009-09-28, 01:40:04,VALID,916.278,VALID,0,VALID,95.4985,VALID,0,VALID,18.8225,VALID,168,VALID,1.04219,
2009-09-28, 01:41:04,VALID,916.251,VALID,0,VALID,95.4985,VALID,0,VALID,18.8434,VALID,168,VALID,1.21016,
2009-09-28, 01:42:04,VALID,916.212,VALID,0,VALID,95.3461,VALID,0,VALID,18.8434,VALID,168,VALID,1.35625,
2009-09-28, 01:43:04,VALID,916.181,VALID,0,VALID,95.2317,VALID,0,VALID,18.8824,VALID,168,VALID,0.783984,
2009-09-28, 01:44:04,VALID,916.18,VALID,0,VALID,95.3232,VALID,0,VALID,18.9019,VALID,168,VALID,0.683203,
2009-09-28, 01:45:04,VALID,916.137,VALID,0,VALID,95.7806,VALID,0.107441,VALID,18.9604,VALID,168,VALID,0.5,
2009-09-28, 01:46:04,VALID,916.119,VALID,0,VALID,95.4147,VALID,0,VALID,18.9409,VALID,168,VALID,0.478516,
2009-09-28, 01:47:04,VALID,916.097,VALID,0,VALID,95.5595,VALID,0,VALID,18.9409,VALID,168,VALID,0.642187,
2009-09-28, 01:48:04,VALID,916.085,VALID,0,VALID,95.529,VALID,0,VALID,18.9409,VALID,168,VALID,0.474609,
2009-09-28, 01:49:04,VALID,916.043,VALID,0,VALID,95.3766,VALID,0.107441,VALID,18.9409,VALID,168,VALID,0.816797,
2009-09-28, 01:50:04,VALID,916.035,VALID,0,VALID,95.2317,VALID,0,VALID,18.9214,VALID,168,VALID,1.01055,
2009-09-28, 01:51:04,VALID,916.007,VALID,0,VALID,94.9649,VALID,0,VALID,18.9409,VALID,168,VALID,0.811328,
2009-09-28, 01:52:04,VALID,915.959,VALID,0,VALID,94.8582,VALID,0,VALID,18.9619,VALID,168,VALID,1.26641,
2009-09-28, 01:53:04,VALID,915.958,VALID,0,VALID,94.4084,VALID,0,VALID,18.9604,VALID,168,VALID,1.30352,
2009-09-28, 01:54:04,VALID,915.958,VALID,0,VALID,94.4008,VALID,0,VALID,18.9994,VALID,168,VALID,0.825781,
2009-09-28, 01:55:04,VALID,915.969,VALID,0,VALID,94.8887,VALID,0,VALID,19.0384,VALID,168,VALID,0.585156,
2009-09-28, 01:56:04,VALID,915.983,VALID,0,VALID,94.881,VALID,0,VALID,19.0579,VALID,168,VALID,0.878125,
2009-09-28, 01:57:04,VALID,915.988,VALID,0,VALID,94.8505,VALID,0,VALID,19.0579,VALID,168,VALID,0.366406,
2009-09-28, 01:58:04,VALID,915.982,VALID,0,VALID,94.8734,VALID,0,VALID,19.0774,VALID,168,VALID,0.346094,
2009-09-28, 01:59:04,VALID,915.978,VALID,0,VALID,94.9725,VALID,0,VALID,19.0969,VALID,168,VALID,0.0429688,
2009-09-28, 02:00:05,VALID,915.917,VALID,0,VALID,94.7667,VALID,0,VALID,19.1164,VALID,168,VALID,0.103516,
2009-09-28, 02:01:05,VALID,915.887,VALID,0,VALID,94.6447,VALID,0,VALID,19.1359,VALID,168,VALID,0.330469,
2009-09-28, 02:02:05,VALID,915.852,VALID,0,VALID,94.3779,VALID,0,VALID,19.1554,VALID,168,VALID,0.479297,
2009-09-28, 02:03:05,VALID,915.859,VALID,0,VALID,94.1949,VALID,0,VALID,19.1749,VALID,168,VALID,0.132422,
2009-09-28, 02:04:05,VALID,915.819,VALID,0,VALID,94.7896,VALID,0,VALID,19.2334,VALID,168,VALID,0.720312,
2009-09-28, 02:05:05,VALID,915.792,VALID,0,VALID,94.9039,VALID,0,VALID,19.2723,VALID,168,VALID,0.778125,
2009-09-28, 02:06:05,VALID,915.771,VALID,0,VALID,94.4313,VALID,0,VALID,19.3308,VALID,168,VALID,0.382422,
2009-09-28, 02:07:05,VALID,915.704,VALID,0,VALID,94.4084,VALID,0,VALID,19.3893,VALID,168,VALID,0.142188,
2009-09-28, 02:08:05,VALID,915.67,VALID,0,VALID,94.5227,VALID,0,VALID,19.4283,VALID,168,VALID,0.128906,
2009-09-28, 02:09:05,VALID,915.602,VALID,0,VALID,93.4783,VALID,0,VALID,19.3893,VALID,168,VALID,1.01719,
2009-09-28, 02:10:05,VALID,915.554,VALID,0,VALID,93.6003,VALID,0,VALID,19.4088,VALID,168,VALID,0.958594,
2009-09-28, 02:11:05,VALID,915.523,VALID,0,VALID,93.4478,VALID,0,VALID,19.4478,VALID,168,VALID,0.213281,
2009-09-28, 02:12:05,VALID,915.477,VALID,0,VALID,93.6994,VALID,0,VALID,19.4673,VALID,168,VALID,0.0664063,
2009-09-28, 02:13:05,VALID,915.412,VALID,0,VALID,93.7985,VALID,0,VALID,19.4673,VALID,168,VALID,0.517187,
2009-09-28, 02:14:05,VALID,915.388,VALID,0,VALID,93.5393,VALID,0,VALID,19.4283,VALID,168,VALID,0.596094,
2009-09-28, 02:15:05,VALID,915.379,VALID,0,VALID,93.9738,VALID,0,VALID,19.3893,VALID,168,VALID,0,
2009-09-28, 02:16:05,VALID,915.377,VALID,0,VALID,94.355,VALID,0,VALID,19.3893,VALID,168,VALID,0.131641,
2009-09-28, 02:17:05,VALID,915.359,VALID,0,VALID,94.416,VALID,0,VALID,19.4088,VALID,168,VALID,0.321484,
2009-09-28, 02:18:05,VALID,915.364,VALID,0,VALID,94.3017,VALID,0,VALID,19.4088,VALID,168,VALID,0.527344,
2009-09-28, 02:19:05,VALID,915.334,VALID,0,VALID,94.1263,VALID,0,VALID,19.4088,VALID,168,VALID,0.358203,
2009-09-28, 02:20:05,VALID,915.324,VALID,0,VALID,94.233,VALID,0,VALID,19.4298,VALID,168,VALID,0.213672,
2009-09-28, 02:21:05,VALID,915.317,VALID,0,VALID,94.3017,VALID,0,VALID,19.4283,VALID,168,VALID,0.394531,
2009-09-28, 02:22:05,VALID,915.3,VALID,0,VALID,94.3093,VALID,0,VALID,19.4478,VALID,168,VALID,0.291797,
2009-09-28, 02:23:05,VALID,915.332,VALID,0,VALID,94.1949,VALID,0,VALID,19.4283,VALID,168,VALID,0.377344,
2009-09-28, 02:24:05,VALID,915.33,VALID,0,VALID,94.294,VALID,0,VALID,19.4283,VALID,168,VALID,0.498437,
2009-09-28, 02:25:05,VALID,915.346,VALID,0,VALID,94.2559,VALID,0,VALID,19.4283,VALID,168,VALID,0.432813,
2009-09-28, 02:26:05,VALID,915.35,VALID,0,VALID,93.9662,VALID,0,VALID,19.4088,VALID,168,VALID,0.683984,
2009-09-28, 02:27:05,VALID,915.377,VALID,0,VALID,93.9434,VALID,0,VALID,19.3698,VALID,168,VALID,0.545703,
2009-09-28, 02:28:05,VALID,915.365,VALID,0,VALID,94.1797,VALID,0,VALID,19.3503,VALID,168,VALID,0.192188,
2009-09-28, 02:29:05,VALID,915.389,VALID,0,VALID,94.477,VALID,0,VALID,19.3308,VALID,168,VALID,0.273438,
2009-09-28, 02:30:05,VALID,915.347,VALID,0,VALID,94.6371,VALID,0,VALID,19.3308,VALID,168,VALID,0.128516,
2009-09-28, 02:31:05,VALID,915.348,VALID,0,VALID,94.7209,VALID,0,VALID,19.3113,VALID,168,VALID,0.506641,
2009-09-28, 02:32:05,VALID,915.316,VALID,0,VALID,94.4236,VALID,0,VALID,19.2918,VALID,168,VALID,0.445703,
2009-09-28, 02:33:05,VALID,915.309,VALID,0,VALID,94.6066,VALID,0,VALID,19.2723,VALID,168,VALID,0.135937,
2009-09-28, 02:34:05,VALID,915.321,VALID,0,VALID,94.5837,VALID,0,VALID,19.2139,VALID,168,VALID,0.479688,
2009-09-28, 02:35:05,VALID,915.352,VALID,0,VALID,94.7667,VALID,0,VALID,19.1749,VALID,168,VALID,0.457422,
2009-09-28, 02:36:05,VALID,915.313,VALID,0,VALID,94.9954,VALID,0,VALID,19.1554,VALID,168,VALID,0.295312,
2009-09-28, 02:37:05,VALID,915.301,VALID,0,VALID,94.82,VALID,0,VALID,19.1359,VALID,168,VALID,0.276953,
2009-09-28, 02:38:05,VALID,915.313,VALID,0,VALID,95.0792,VALID,0,VALID,19.1149,VALID,168,VALID,0.464063,
2009-09-28, 02:39:05,VALID,915.265,VALID,0,VALID,95.1174,VALID,0,VALID,19.1359,VALID,168,VALID,0.458203,
2009-09-28, 02:40:05,VALID,915.243,VALID,0,VALID,95.0564,VALID,0,VALID,19.1164,VALID,168,VALID,0.496094,
2009-09-28, 02:41:05,VALID,915.249,VALID,0,VALID,95.064,VALID,0,VALID,19.0759,VALID,168,VALID,0.360938,
2009-09-28, 02:42:05,VALID,915.249,VALID,0,VALID,94.8582,VALID,0,VALID,19.0579,VALID,168,VALID,0.492578,
2009-09-28, 02:43:05,VALID,915.218,VALID,0,VALID,95.0259,VALID,0,VALID,19.0398,VALID,168,VALID,0.369141,
2009-09-28, 02:44:05,VALID,915.217,VALID,0,VALID,95.247,VALID,0,VALID,19.0189,VALID,168,VALID,0.455859,
2009-09-28, 02:45:05,VALID,915.167,VALID,0,VALID,95.4528,VALID,0,VALID,19.0384,VALID,168,VALID,0.45,
2009-09-28, 02:46:05,VALID,915.175,VALID,0,VALID,95.4909,VALID,0,VALID,19.0579,VALID,168,VALID,0.253125,
2009-09-28, 02:47:05,VALID,915.177,VALID,0,VALID,95.6815,VALID,0,VALID,19.0774,VALID,168,VALID,0.101563,
2009-09-28, 02:48:05,VALID,915.201,VALID,0,VALID,95.7044,VALID,0,VALID,19.1164,VALID,168,VALID,0.00429688,
2009-09-28, 02:49:05,VALID,915.206,VALID,0,VALID,95.6662,VALID,0,VALID,19.1554,VALID,168,VALID,0.643359,
2009-09-28, 02:50:05,VALID,915.212,VALID,0,VALID,95.4985,VALID,0,VALID,19.1944,VALID,168,VALID,0.273828,
2009-09-28, 02:51:05,VALID,915.207,VALID,0,VALID,95.2088,VALID,0,VALID,19.1944,VALID,168,VALID,0.297656,
2009-09-28, 02:52:05,VALID,915.175,VALID,0,VALID,95.125,VALID,0,VALID,19.2139,VALID,168,VALID,0.557422,
2009-09-28, 02:53:05,VALID,915.183,VALID,0,VALID,95.2393,VALID,0,VALID,19.2528,VALID,168,VALID,0.468359,
2009-09-28, 02:54:05,VALID,915.189,VALID,0,VALID,94.9878,VALID,0,VALID,19.2528,VALID,168,VALID,0.323438,
2009-09-28, 02:55:05,VALID,915.173,VALID,0,VALID,94.8505,VALID,0,VALID,19.2723,VALID,168,VALID,0.585547,
2009-09-28, 02:56:05,VALID,915.173,VALID,0,VALID,94.7209,VALID,0,VALID,19.2528,VALID,168,VALID,0.437891,
2009-09-28, 02:57:05,VALID,915.184,VALID,0,VALID,94.8429,VALID,0,VALID,19.2528,VALID,168,VALID,0.551172,
2009-09-28, 02:58:05,VALID,915.163,VALID,0,VALID,94.8887,VALID,0,VALID,19.2723,VALID,168,VALID,0.626562,
2009-09-28, 02:59:05,VALID,915.202,VALID,0,VALID,94.7667,VALID,0,VALID,19.2723,VALID,168,VALID,0.501562,
2009-09-28, 03:00:05,VALID,915.164,VALID,0,VALID,94.9496,VALID,0,VALID,19.2723,VALID,168,VALID,0.0121094,
2009-09-28, 03:01:05,VALID,915.151,VALID,0,VALID,94.8963,VALID,0,VALID,19.3128,VALID,168,VALID,0.523438,
2009-09-28, 03:02:05,VALID,915.127,VALID,0,VALID,94.6828,VALID,0,VALID,19.3323,VALID,168,VALID,0.805078,
2009-09-28, 03:03:05,VALID,915.152,VALID,0,VALID,94.5837,VALID,0,VALID,19.3308,VALID,168,VALID,0.736719,
2009-09-28, 03:04:05,VALID,915.147,VALID,0,VALID,94.3931,VALID,0,VALID,19.3713,VALID,168,VALID,0.232031,
2009-09-28, 03:05:05,VALID,915.143,VALID,0,VALID,94.3169,VALID,0,VALID,19.3503,VALID,168,VALID,0.758203,
2009-09-28, 03:06:05,VALID,915.155,VALID,0,VALID,94.355,VALID,0,VALID,19.3698,VALID,168,VALID,0.683594,
2009-09-28, 03:07:05,VALID,915.148,VALID,0,VALID,94.2254,VALID,0,VALID,19.3893,VALID,168,VALID,0.998047,
2009-09-28, 03:08:05,VALID,915.134,VALID,0,VALID,94.2178,VALID,0,VALID,19.4283,VALID,168,VALID,0.448438,
2009-09-28, 03:09:05,VALID,915.154,VALID,0,VALID,94.012,VALID,0,VALID,19.4478,VALID,168,VALID,0.660156,
2009-09-28, 03:10:05,VALID,915.119,VALID,0,VALID,93.951,VALID,0,VALID,19.4673,VALID,168,VALID,0.420312,
2009-09-28, 03:11:05,VALID,915.124,VALID,0,VALID,93.7909,VALID,0,VALID,19.5063,VALID,168,VALID,0.776563,
2009-09-28, 03:12:05,VALID,915.173,VALID,0,VALID,93.646,VALID,0,VALID,19.5453,VALID,168,VALID,0.657812,
2009-09-28, 03:13:05,VALID,915.166,VALID,0,VALID,93.4859,VALID,0,VALID,19.5648,VALID,168,VALID,0.713672,
2009-09-28, 03:14:05,VALID,915.153,VALID,0,VALID,93.4936,VALID,0,VALID,19.5648,VALID,168,VALID,0.703516,
2009-09-28, 03:15:05,VALID,915.153,VALID,0,VALID,93.4097,VALID,0,VALID,19.6053,VALID,168,VALID,0.682813,
2009-09-28, 03:16:05,VALID,915.149,VALID,0,VALID,93.4173,VALID,0,VALID,19.5453,VALID,168,VALID,0.353125,
2009-09-28, 03:17:05,VALID,915.153,VALID,0,VALID,93.5851,VALID,0,VALID,19.5273,VALID,168,VALID,0.992578,
2009-09-28, 03:18:05,VALID,915.125,VALID,0,VALID,93.3564,VALID,0,VALID,19.5063,VALID,313,VALID,1.21016,
2009-09-28, 03:19:05,VALID,915.122,VALID,0,VALID,93.0667,VALID,0,VALID,19.5453,VALID,339,VALID,0.452344,
2009-09-28, 03:20:05,VALID,915.14,VALID,0,VALID,92.8685,VALID,0,VALID,19.5843,VALID,359,VALID,1.31953,
2009-09-28, 03:21:05,VALID,915.127,VALID,0,VALID,92.5406,VALID,0,VALID,19.6233,VALID,335,VALID,1.24258,
2009-09-28, 03:22:05,VALID,915.138,VALID,0,VALID,92.3882,VALID,0,VALID,19.6623,VALID,334,VALID,0.821094,
2009-09-28, 03:23:05,VALID,915.141,VALID,0,VALID,92.3882,VALID,0,VALID,19.6818,VALID,334,VALID,0.401563,
2009-09-28, 03:24:05,VALID,915.113,VALID,0,VALID,92.2433,VALID,0,VALID,19.6818,VALID,334,VALID,0.302344,
2009-09-28, 03:25:05,VALID,915.094,VALID,0,VALID,92.2662,VALID,0,VALID,19.6818,VALID,334,VALID,0.447266,
2009-09-28, 03:26:05,VALID,915.083,VALID,0,VALID,92.5178,VALID,0,VALID,19.6818,VALID,334,VALID,0.228516,
2009-09-28, 03:27:05,VALID,915.081,VALID,0,VALID,92.5483,VALID,0,VALID,19.6623,VALID,334,VALID,0,
2009-09-28, 03:28:05,VALID,915.048,VALID,0,VALID,92.5788,VALID,0,VALID,19.6428,VALID,334,VALID,0,
2009-09-28, 03:29:05,VALID,915.068,VALID,0,VALID,92.5406,VALID,0,VALID,19.6638,VALID,334,VALID,0.148438,
2009-09-28, 03:30:05,VALID,915.066,VALID,0,VALID,92.6397,VALID,0,VALID,19.6023,VALID,334,VALID,0,
2009-09-28, 03:31:05,VALID,915.082,VALID,0,VALID,92.6397,VALID,0,VALID,19.6233,VALID,334,VALID,0,
2009-09-28, 03:32:05,VALID,915.044,VALID,0,VALID,92.6397,VALID,0,VALID,19.6038,VALID,334,VALID,0,
2009-09-28, 03:33:05,VALID,915.027,VALID,0,VALID,92.7617,VALID,0,VALID,19.5843,VALID,334,VALID,0.0265625,
2009-09-28, 03:34:05,VALID,915.051,VALID,0,VALID,92.6931,VALID,0,VALID,19.5648,VALID,334,VALID,0.251563,
2009-09-28, 03:35:05,VALID,915.027,VALID,0,VALID,92.7922,VALID,0,VALID,19.5453,VALID,334,VALID,0.441016,
2009-09-28, 03:36:05,VALID,915.054,VALID,0,VALID,92.9523,VALID,0,VALID,19.5048,VALID,334,VALID,0.313672,
2009-09-28, 03:37:05,VALID,915.051,VALID,0,VALID,93.2191,VALID,0,VALID,19.4868,VALID,334,VALID,0.0785156,
2009-09-28, 03:38:05,VALID,915.059,VALID,0,VALID,93.1505,VALID,0,VALID,19.4868,VALID,334,VALID,0.576953,
2009-09-28, 03:39:05,VALID,915.038,VALID,0,VALID,92.4492,VALID,0,VALID,19.4088,VALID,334,VALID,0.371875,
2009-09-28, 03:40:05,VALID,915.031,VALID,0,VALID,92.9066,VALID,0,VALID,19.3308,VALID,334,VALID,0.185156,
2009-09-28, 03:41:05,VALID,915.004,VALID,0,VALID,93.7528,VALID,0,VALID,19.2723,VALID,334,VALID,0.200391,
2009-09-28, 03:42:05,VALID,915.032,VALID,0,VALID,94.0501,VALID,0,VALID,19.2528,VALID,334,VALID,0,
2009-09-28, 03:43:05,VALID,915.026,VALID,0,VALID,94.0348,VALID,0,VALID,19.2334,VALID,334,VALID,0.272266,
2009-09-28, 03:44:05,VALID,915,VALID,0,VALID,93.2649,VALID,0,VALID,19.1944,VALID,334,VALID,0.551562,
2009-09-28, 03:45:05,VALID,915.006,VALID,0,VALID,93.9281,VALID,0,VALID,19.1554,VALID,334,VALID,0.272266,